TimeMST,TemperatureF,Dew PointF,Humidity,Sea Level PressureIn,VisibilityMPH,Wind Direction,Wind SpeedMPH,Gust SpeedMPH,PrecipitationIn,Events,Conditions,WindDirDegrees,DateUTC
12:54 AM,55.0,12.0,18,29.85,10.0,SSW,4.6,-,N/A,,Clear,200,2013-05-26 07:54:00
1:54 AM,53.1,14.0,21,29.85,10.0,Calm,Calm,-,N/A,,Clear,0,2013-05-26 08:54:00
2:54 AM,51.1,16.0,25,29.86,10.0,SSE,4.6,-,N/A,,Clear,160,2013-05-26 09:54:00
3:54 AM,50.0,15.1,25,29.86,10.0,South,8.1,-,N/A,,Clear,170,2013-05-26 10:54:00
4:54 AM,51.1,14.0,23,29.88,10.0,SSE,6.9,-,N/A,,Clear,160,2013-05-26 11:54:00
5:54 AM,50.0,14.0,24,29.91,10.0,ESE,4.6,-,N/A,,Clear,120,2013-05-26 12:54:00
6:54 AM,55.0,15.1,21,29.91,10.0,Calm,Calm,-,N/A,,Clear,0,2013-05-26 13:54:00
7:54 AM,62.1,16.0,17,29.90,10.0,Calm,Calm,-,N/A,,Clear,0,2013-05-26 14:54:00
8:54 AM,68.0,16.0,14,29.88,10.0,Calm,Calm,-,N/A,,Clear,0,2013-05-26 15:54:00
9:54 AM,73.0,15.1,11,29.88,10.0,Calm,Calm,-,N/A,,Clear,0,2013-05-26 16:54:00
10:54 AM,75.9,15.1,10,29.88,10.0,Variable,4.6,-,N/A,,Clear,0,2013-05-26 17:54:00
11:54 AM,81.0,15.1,8,29.81,10.0,ENE,13.8,24.2,N/A,,Clear,60,2013-05-26 18:54:00
12:54 PM,82.9,9.0,6,29.82,10.0,SW,19.6,27.6,N/A,,Clear,220,2013-05-26 19:54:00
1:54 PM,82.9,6.1,5,29.81,10.0,WSW,25.3,38.0,N/A,,Clear,240,2013-05-26 20:54:00
2:54 PM,82.0,6.1,6,29.81,10.0,SW,27.6,34.5,N/A,,Clear,230,2013-05-26 21:54:00
3:54 PM,80.1,6.1,6,29.83,10.0,SW,17.3,29.9,N/A,,Clear,220,2013-05-26 22:54:00
4:54 PM,79.0,8.1,7,29.82,10.0,SSW,21.9,29.9,N/A,,Clear,210,2013-05-26 23:54:00
5:54 PM,77.0,5.0,6,29.82,10.0,SW,16.1,25.3,N/A,,Clear,220,2013-05-27 00:54:00
6:54 PM,73.9,-0.0,5,29.82,10.0,SW,10.4,18.4,N/A,,Clear,220,2013-05-27 01:54:00
7:54 PM,68.0,3.0,8,29.85,10.0,SSW,8.1,-,N/A,,Clear,210,2013-05-27 02:54:00
8:54 PM,63.0,3.9,10,29.86,10.0,SSW,4.6,-,N/A,,Clear,210,2013-05-27 03:54:00
9:54 PM,57.0,6.1,13,29.88,10.0,Calm,Calm,-,N/A,,Clear,0,2013-05-27 04:54:00
10:54 PM,50.0,10.0,20,29.90,10.0,Calm,Calm,-,N/A,,Clear,0,2013-05-27 05:54:00
11:54 PM,50.0,10.9,21,29.88,10.0,Calm,Calm,-,N/A,,Clear,0,2013-05-27 06:54:00